Other Public Products
Issued by NWS Grand Forks, ND

Home | Current Version | Previous Version | Graphics & Text | Print | Product List | Glossary On
Versions: 1 2 3 4 5 6 7 8 9 10 11 12 13 14 15 16 17 18 19 20 21 22 23 24 25 26 27 28 29 30 31 32 33 34 35 36 37 38 39 40 41 42 43 44 45 46 47 48 49 50
866
FPUS83 KFGF 161031
OPUFGF
PRAIRIE TO PINES WEATHER ROUNDUP
NATIONAL WEATHER SERVICE EASTERN NORTH DAKOTA/GRAND FORKS ND
400 AM CST MON JAN 16 2017

 **SATELLITE DATA USED TO AUGMENT SKY COVER AT AUTOMATED STATIONS**
 *****  WEATHER ACROSS EASTERN NORTH DAKOTA  *****

CITY           SKY/WX    TMP DP  RH WIND       PRES   REMARKS
GRAND FORKS    FAIR       6   0  76 S12       30.05F WCI  -9
GRAND FORKS AF FAIR       6   0  76 SW3       30.05S
GRAND CITY NWS NOT AVBL
BUXTON           N/A     -3   6 100 S9          N/A  WCI -19
DEVILS LAKE    FAIR       8   3  80 W5        30.01F WCI   0
FARGO          FAIR       9   5  84 S8        30.09F WCI  -3
WAHPETON ARPT  FAIR       5   1  85 SE6       30.10F WCI  -6
$$

 *****  WEATHER ACROSS CENTRAL AND WESTERN NORTH DAKOTA  *****

CITY           SKY/WX    TMP DP  RH WIND       PRES   REMARKS
JAMESTOWN      FAIR      11   4  73 W12       30.03F WCI  -3
BISMARCK       FAIR      -2  -8  76 CALM      30.06F
MINOT          FAIR      16   8  71 SW9       29.99F WCI   4
MINOT AFB      FAIR      13   7  75 W7        29.98S WCI   3
GARRISON         N/A     12   4  70 W8        30.01F WCI   0
WILLISTON      FAIR       9   5  84 W8        30.06R WCI  -3
DICKINSON      FAIR      14   5  67 W10       30.02R WCI   1
HETTINGER      FAIR      11   3  70 NW8       30.06R WCI  -1
$$

 *****  OTHER OBSERVATIONS NORTHEAST NORTH DAKOTA  *****

CITY           SKY/WX    TMP DP  RH WIND       PRES   REMARKS
WALHALLA       NOT AVBL
LANGDON        NOT AVBL
CAVALIER         N/A      9   3  78 S9        30.00F WCI  -5
GRAFTON        FAIR       7   3  85 S9        30.04F WCI  -7
CANDO          NOT AVBL
FORT TOTTEN      N/A     17   8  67 SW2       29.95S
ROLLA            N/A    N/A N/A N/A MISG        N/A
RUGBY            N/A      5   0  78 SW10      30.00F WCI -10
 ***** THE ABOVE OBSERVATIONS ARE NON NWS ARE NOT QUALITY
        CONTROLLED AND MAY MIS-REPORT RAIN FOR SNOW...
$$

 *****  OTHER OBSERVATIONS SOUTHEAST NORTH DAKOTA *****

CITY           SKY/WX    TMP DP  RH WIND       PRES   REMARKS
COOPERSTOWN    FAIR       3   0  85 CALM      30.05R
VALLEY CITY    FAIR       9   5  85 CALM      30.05F
OAKES          NOT AVBL
GWINNER        FAIR      14  12  92 SW16      30.07S WCI  -2
SHEYENNE NWR     N/A     10   5  79 W2        29.95S
BUFFALO          N/A     14   6  70 S9          N/A  WCI   2
WYNDMERE         N/A      1  -2  85 S5          N/A  WCI  -8
 ***** THE ABOVE OBSERVATIONS ARE NON NWS ARE NOT QUALITY
       CONTROLLED AND MAY MIS-REPORT RAIN FOR SNOW...
$$

  *****  WEATHER ACROSS NORTHERN MINNESOTA  *****

CITY           SKY/WX    TMP DP  RH WIND       PRES   REMARKS
FLAG ISLAND    FAIR       5   1  85 SE9       30.00F WCI  -9
WARROAD        FAIR      12   7  79 SW8       30.01S WCI   1
ROSEAU         FAIR       9   3  78 S7        30.01S WCI  -3
HALLOCK        FAIR       3   0  85 S10       30.01F WCI -12
THF RVR FALLS  FAIR       9   5  84 S7        30.06R WCI  -2
HALSTAD          N/A      5   1  84 S12         N/A  WCI -11
FOSSTON        FAIR      12  10  92 S10       30.05F WCI  -1
BAUDETTE       FAIR       9   5  84 CALM      30.02S
WASKISH        FAIR      16  14  93 S3        30.03F
CROOKSTON      FAIR       7   3  85 S6        30.08S WCI  -3
$$
  *****  WEATHER ACROSS CENTRAL AND WEST MINNESOTA  *****

CITY           SKY/WX    TMP DP  RH WIND       PRES   REMARKS
BEMIDJI        FAIR      13  11  92 CALM      30.04S
PARK RAPIDS    FAIR       6   0  76 SE3       30.07F HAZE
WADENA         FAIR       3   1  92 CALM      30.09S FOG
DETROIT LAKES  FAIR      14  14 100 CALM      30.09S FOG
MOORHEAD       FAIR       7   3  85 S9        30.10S WCI  -7
FERGUS FALLS   FAIR      16  12  86 SE6       30.15F WCI   7
ELBOW LAKE     FAIR      15  14  93 SE8       30.10F FOG     WCI   4
MORRIS MN      FAIR       9   5  85 SE6       30.10S WCI  -1
STAPLES        FAIR       1   0  92 SE3       30.10F
WHEATON        FAIR      10   9  92 SE5       30.12S WCI   2
$$
  *****  WEATHER ELSEWHERE ACROSS MINNESOTA  *****

CITY           SKY/WX    TMP DP  RH WIND       PRES   REMARKS
DULUTH         FAIR      16  14  92 W9        30.10S FOG     WCI   4
INTRNTL FALLS  FAIR       5   1  83 CALM      30.04S
ELY            FAIR      12  12 100 CALM      30.07S
CLOQUET        FAIR      16  14  93 MISG      30.11F FOG
BRAINERD       FAIR       6   4  91 CALM      30.13R FOG
HIBBING        FAIR      -3  -4  95 CALM      30.09F
ALEXANDRIA     FAIR      12  11  95 CALM      30.10F FOG
SAINT CLOUD    FAIR      13  12  96 SE5       30.13F FOG     WCI   5
MINNEAPOLIS    MOCLDY    16  11  80 E5        30.19F WCI   9
$$

  *****  WEATHER ACROSS SOUTH DAKOTA  *****

CITY           SKY/WX    TMP DP  RH WIND       PRES   REMARKS
SIOUX FALLS    CLOUDY    24  19  81 NE3       30.11F
BROOKINGS      FAIR      16  13  88 SE5       30.10S WCI   9
WATERTOWN      FAIR      11  10  96 S3        30.07F FOG
HURON          FAIR       9   6  88 CALM      30.11R
SISSETON         N/A     20  15  81 W9        30.08S WCI   9
ABERDEEN       FAIR      -2  -7  79 SW6       30.10S WCI -14
MITCHELL       FAIR      20  18  92 S5        30.11F WCI  13
PIERRE         FAIR       8   4  83 W8        30.08F WCI  -4
MOBRIDGE       FAIR       0  -6  76 CALM      30.05S
RAPID CITY     FAIR      21   9  59 NW10      30.04R WCI  10
$$

  *****  SOME WEATHER IN NEARBY STATES *****

CITY           SKY/WX    TMP DP  RH WIND       PRES   REMARKS
GLASGOW MT     FAIR       5   0  79 NW10      30.08R WCI -10
GREAT FALLS MT FAIR      21   9  59 S17       30.11R WCI   7
CHEYENNE WY    CLOUDY    30  20  66 N17       29.96S WCI  18
SCOTTSBLUFF NE CLOUDY    33  27  78 NW6       30.00S
OMAHA NE       CLOUDY    33  29  85 E6        30.09F
DES MOINES IA  FRZ RAIN  31  29  92 E7        30.15F FOG     WCI  24
DAVENPORT IA   MIX PCPN  31  29  92 E8        30.22S FOG     WCI  23
CHICAGO IL     FRZ RAIN  32  29  88 CALM      30.27S
EAU CLAIRE WI  FAIR       4   1  88 CALM      30.21F FOG
LA CROSSE WI   FAIR     N/A N/A N/A S3        30.24F
$$

  *****  SOME NATIONAL WEATHER *****

CITY           SKY/WX    TMP DP  RH WIND       PRES   REMARKS
LA GUARDIA NY  FAIR      32  18  56 N3        30.44F
RALEIGH NC     CLOUDY    46  35  65 E6        30.38F
ATLANTA GA     MOCLDY    56  48  74 E3        30.25R
NEW ORLEANS LA FAIR      64  63  96 SE6       30.11F
OKLAHOMA CITY  CLOUDY    40  40 100 SW8       29.85F
ALBUQUERQUE NM DRIZZLE   37  36  96 S5        29.91S
SALT LAKE CITY CLOUDY    26  22  84 NW7       30.23R WCI  18
LOS ANGELES CA CLOUDY    55  52  89 E5        30.06F
BOISE ID       CLOUDY     2  -2  83 SE5       30.43S FOG     WCI  -8
SEATTLE WA     MOCLDY    34  28  79 CALM      30.25F
$$

*** WEATHER ACROSS MANITOBA...SASKATCHEWAN AND ONTARIO ***
                ***ONTARIO***

CITY           SKY/WX    TMP DP  RH WIND       PRES   REMARKS
GERALDTON      MOCLDY    23  16  74 W7        29.94R WCI  15
THUNDER BAY    CLEAR      3   1  92 N2        30.06R
SIOUX LOOKOUT  MOCLDY    14  10  85 SW3       29.99R
TORONTO        CLEAR     23  18  80 SW6       30.32F WCI  16
BIG TROUT LK   CLOUDY    19  18  93 N7        29.91R WCI  10
PICKLE LAKE    NOT AVBL
DRYDEN         CLEAR     14  10  85 SW10      29.99S WCI   1
KENORA         CLOUDY    10   5  79 S7        29.98  WCI   0
$$
                *** MANITOBA***

CITY           SKY/WX    TMP DP  RH WIND       PRES   REMARKS
BRANDON        PTCLDY     7   3  85 W10       29.97R WCI  -8
DAUPHIN        MOCLDY    23  18  80 W10       29.96R WCI  12
ISLAND LAKE    LGT SNOW  19  16  86 VRB2      29.93R
PILOT MOUND      N/A      3   0  85 SW6         N/A  WCI  -8
THE PAS        CLEAR     18  14  86 SE6       29.90R WCI   9
THOMPSON       FLURRIES  18  16  93 E3        29.92R
WINNIPEG       MOCLDY     7   3  85 S10       29.99R WCI  -8
LYNN LAKE      CLOUDY    23  23 100 S6        29.81S WCI  16
CHURCHILL      CRYSTALS -13 -17  84 NW5       30.05R WCI -25
GILLAM         CLOUDY    -4  -9  77 NE5       30.01R WCI -15
$$
                ***SASKATCHEWAN***

CITY           SKY/WX    TMP DP  RH WIND       PRES   REMARKS
ESTEVAN        PTCLDY     9   5  85 W9        30.03R WCI  -5
KINDERSLEY     PTCLDY    16  12  86 S6        30.01R WCI   7
LLOYDMINSTER   CLEAR     25  16  68 SW10      29.93S WCI  15
PRINCE ALBERT  CLEAR      7   3  85 W3        29.93S
REGINA         PTCLDY    10   9  92 CALM      30.02R
YORKTON        CLEAR     14  12  92 SW6       29.97R WCC1F1C2F2C3F3C4F4C5F5C6F6C7F7C8F8C9F9CaFaCbFbCcFcCdFdCe!



USA.gov is the U.S. government's official web portal to all federal, state and local government web resources and services.